Home > Weather > Navi Mumbai > Past weeks

Flag for India Past Weather in Navi Mumbai, Maharashtra, India — Yesterday and Last 2 Weeks

Now
81 °F

Broken clouds.


Feels Like: 87 °F
Forecast: 79 / 83 °F
Wind: 10 mph from Southwest

Location: Mumbai / Santacruz

Current Time: Jun 25, 2016 at 7:20:20 AM

Latest Report: Jun 25, 2016 at 7:00 AM


Visibility: 2 mi

Pressure: 29.68 "Hg

Humidity: 89%

Dew Point: 77 °F

Location of Navi MumbaiLocation

Past Weather in Navi Mumbai — Graph

°F

Navi Mumbai Temperature Yesterday

Maximum temperature yesterday: 86 °F (at 1:00 PM)
Minimum temperature yesterday: 79 °F (at 1:00 AM)
Average temperature yesterday: 81 °F

High & Low Weather Summary for the Past Weeks

 TemperatureHumidityPressure
High95 °F (Jun 13, 2:30 PM)100% (Jun 21, 4:00 AM)29.80 "Hg (Jun 21, 4:00 AM)
Low77 °F (Jun 19, 8:30 PM)59% (Jun 13, 1:00 PM)29.53 "Hg (Jun 20, 4:30 PM)
Average86 °F78%29.68 "Hg
* Reported Jun 10 5:30 AM — Jun 25 6:00 AM, Navi Mumbai, Weather by CustomWeather, © 2016

Note: Actual official high and low records may vary slightly from our data, if they occured in-between our weather recording intervals... More about our weather records

Advertising

Navi Mumbai Weather History for the Previous 24 Hours

Scroll right to see more
 ConditionsComfort  
Time TempWeatherWind HumidityBarometerVisibility
6:00 AM
Sat, Jun 25
81 °FDrizzle. Mostly cloudy.13 mph89%29.62 "Hg1 mi
5:30 AM79 °FDrizzle. Mostly cloudy.7 mph94%29.62 "Hg1 mi
5:00 AM79 °FHeavy rain. Mostly cloudy.7 mph94%29.62 "Hg1 mi
4:30 AM79 °FDrizzle. Mostly cloudy.8 mph94%29.62 "Hg1 mi
4:00 AM79 °FLight rain. Mostly cloudy.8 mph94%29.62 "Hg1 mi
3:30 AM79 °FThunderstorms. Mostly cloudy.9 mph100%29.62 "Hg1 mi
3:00 AM79 °FThunderstorms. Mostly cloudy.5 mph94%29.62 "Hg1 mi
2:30 AM77 °FThunderstorms. Mostly cloudy.3 mph100%29.65 "Hg1 mi
2:00 AM77 °FThunderstorms. Mostly cloudy.3 mph100%29.65 "Hg1 mi
1:30 AM79 °FThunderstorms. Mostly cloudy.5 mph94%29.68 "Hg1 mi
12:30 AM79 °FThunderstorms. Mostly cloudy.8 mph94%29.68 "Hg1 mi
11:30 PM
Fri, Jun 24
79 °FThunderstorms. Mostly cloudy.7 mph94%29.68 "Hg1 mi
11:00 PM79 °FThunderstorms. Mostly cloudy.12 mph94%29.68 "Hg1 mi
10:30 PM79 °FThunderstorms. Mostly cloudy.14 mph94%29.68 "Hg1 mi
10:00 PM79 °FRain. Mostly cloudy.8 mph94%29.68 "Hg1 mi
8:30 PM81 °FLight rain. Mostly cloudy.5 mph94%29.62 "Hg1 mi
8:00 PM81 °FRain showers. Mostly cloudy.9 mph94%29.62 "Hg1 mi
7:30 PM81 °FThunderstorms. More clouds than sun.9 mph94%29.62 "Hg1 mi
7:00 PM81 °FThunderstorms. More clouds than sun.5 mph94%29.62 "Hg1 mi
6:30 PM79 °FThunderstorms. More clouds than sun.3 mph94%29.59 "Hg1 mi
6:00 PM81 °FThunderstorms. More clouds than sun.15 mph94%29.59 "Hg1 mi
5:30 PM81 °FThunderstorms. More clouds than sun.8 mph94%29.59 "Hg1 mi
4:30 PM81 °FThunderstorms. More clouds than sun.7 mph94%29.59 "Hg1 mi
4:00 PM81 °FThunderstorms. More clouds than sun.9 mph94%29.59 "Hg1 mi
3:30 PM79 °FRain. More clouds than sun.3 mph94%29.62 "Hg1 mi
3:00 PM81 °FRain. Broken clouds.3 mph94%29.62 "Hg1 mi
2:30 PM81 °FLight rain. Broken clouds.6 mph94%29.62 "Hg1 mi
2:00 PM81 °FRain. Broken clouds.12 mph89%29.65 "Hg1 mi
1:30 PM82 °FLight rain. Broken clouds.15 mph89%29.65 "Hg1 mi
1:00 PM86 °FScattered showers. Broken clouds.9 mph84%29.62 "Hg2 mi
12:30 PM84 °FBroken clouds.14 mph79%29.65 "Hg2 mi
12:00 PM84 °FBroken clouds.12 mph84%29.65 "Hg2 mi
11:30 AM84 °FBroken clouds.12 mph84%29.68 "Hg1 mi
11:00 AM82 °FScattered showers. Broken clouds.9 mph89%29.68 "Hg1 mi
10:30 AM84 °FLight rain. Broken clouds.12 mph84%29.68 "Hg1 mi
10:00 AM84 °FBroken clouds.14 mph79%29.68 "Hg2 mi
9:30 AM82 °FBroken clouds.8 mph89%29.68 "Hg2 mi
9:00 AM82 °FBroken clouds.9 mph89%29.68 "Hg2 mi
8:30 AM84 °FBroken clouds.7 mph84%29.68 "Hg2 mi
8:00 AM82 °FBroken clouds.6 mph89%29.65 "Hg2 mi
7:30 AM82 °FBroken clouds.5 mph89%29.65 "Hg2 mi
7:00 AM82 °FBroken clouds.7 mph89%29.65 "Hg2 mi
Weather by CustomWeather, © 2016

See weather overviewHow to use our weather pages